| time (UTC) | temp C | wind direction | speed KPH | gust KPH | rain 1hr cm | rain 24hr cm | rain mn cm | humidity % | barometer mb |
| 20260906130121 | 27 | 337 | 1.6 | 6.4 | 0.00 | 0.00 | 0.00 | 77 | 1014.9 |
| 20260906125619 | 27 | 21 | 4.8 | 6.4 | 0.00 | 0.00 | 0.00 | 77 | 1015.1 |
| 20260906125118 | 26 | 23 | 3.2 | 6.4 | 0.00 | 0.00 | 0.00 | 78 | 1014.9 |
| 20260906124614 | 27 | 334 | 0.0 | 3.2 | 0.00 | 0.00 | 0.00 | 78 | 1014.8 |
| 20260906124108 | 26 | 291 | 0.0 | 3.2 | 0.00 | 0.00 | 0.00 | 82 | 1014.8 |
| 20260906123608 | 25 | 359 | 0.0 | 3.2 | 0.00 | 0.00 | 0.00 | 85 | 1014.9 |
| 20260906123103 | 25 | 320 | 1.6 | 3.2 | 0.00 | 0.00 | 0.00 | 87 | 1014.8 |
| 20260906122602 | 24 | 349 | 3.2 | 4.8 | 0.00 | 0.00 | 0.00 | 88 | 1014.8 |
| 20260906122058 | 24 | 342 | 0.0 | 3.2 | 0.00 | 0.00 | 0.00 | 88 | 1014.6 |
| 20260906121554 | 24 | 295 | 0.0 | 1.6 | 0.00 | 0.00 | 0.00 | 88 | 1014.6 |
| 20260906121050 | 23 | 284 | 0.0 | 3.2 | 0.00 | 0.00 | 0.00 | 88 | 1014.7 |
| 20260906120545 | 23 | 2 | 0.0 | 3.2 | 0.00 | 0.00 | 0.00 | 88 | 1014.6 |
| 20260906120042 | 23 | 333 | 0.0 | 3.2 | 0.00 | 0.00 | 0.00 | 88 | 1014.6 |
| 20260906115542 | 23 | 294 | 0.0 | 3.2 | 0.00 | 0.00 | 0.00 | 88 | 1014.4 |
| 20260906115037 | 23 | 280 | 0.0 | 1.6 | 0.00 | 0.00 | 0.00 | 88 | 1014.3 |
| 20260906114531 | 23 | 300 | 0.0 | 1.6 | 0.00 | 0.00 | 0.00 | 88 | 1014.5 |
| 20260906114027 | 23 | 259 | 1.6 | 1.6 | 0.00 | 0.00 | 0.00 | 88 | 1014.2 |
| 20260906113525 | 23 | 273 | 0.0 | 1.6 | 0.00 | 0.00 | 0.00 | 88 | 1014.2 |
| 20260906113021 | 23 | 317 | 1.6 | 3.2 | 0.00 | 0.00 | 0.00 | 88 | 1014.0 |
| 20260906112516 | 23 | 274 | 1.6 | 1.6 | 0.00 | 0.00 | 0.00 | 88 | 1014.0 |
| 20260906112013 | 23 | 292 | 0.0 | 1.6 | 0.00 | 0.00 | 0.00 | 88 | 1013.9 |
| 20260906111512 | 23 | 300 | 0.0 | 1.6 | 0.00 | 0.00 | 0.00 | 88 | 1013.9 |
| 20260906111008 | 23 | 323 | 0.0 | 1.6 | 0.00 | 0.00 | 0.00 | 88 | 1013.8 |
| 20260906110502 | 23 | 351 | 0.0 | 3.2 | 0.00 | 0.00 | 0.00 | 88 | 1013.7 |
| 20260906110000 | 23 | 300 | 0.0 | 3.2 | 0.00 | 0.00 | 0.00 | 88 | 1013.6 |
| 20260906105457 | 23 | 266 | 0.0 | 1.6 | 0.00 | 0.00 | 0.00 | 88 | 1013.7 |
| 20260906104953 | 23 | 292 | 1.6 | 1.6 | 0.00 | 0.00 | 0.00 | 88 | 1013.6 |
| 20260906104451 | 23 | 321 | 0.0 | 3.2 | 0.00 | 0.00 | 0.00 | 88 | 1013.5 |
| 20260906103950 | 23 | 63 | 0.0 | 3.2 | 0.00 | 0.00 | 0.00 | 88 | 1013.7 |
| 20260906103449 | 23 | 349 | 0.0 | 1.6 | 0.00 | 0.00 | 0.00 | 88 | 1013.3 |
| 20260906102944 | 23 | 300 | 0.0 | 3.2 | 0.00 | 0.00 | 0.00 | 88 | 1013.3 |
| 20260906102439 | 23 | 281 | 0.0 | 1.6 | 0.00 | 0.00 | 0.00 | 88 | 1013.3 |
| 20260906101939 | 23 | 300 | 0.0 | 0.0 | 0.00 | 0.00 | 0.00 | 88 | 1013.2 |
| 20260906101434 | 23 | 7 | 0.0 | 1.6 | 0.00 | 0.00 | 0.00 | 88 | 1013.1 |
| 20260906100929 | 23 | 321 | 0.0 | 1.6 | 0.00 | 0.00 | 0.00 | 87 | 1013.1 |
| 20260906100424 | 23 | 300 | 0.0 | 1.6 | 0.00 | 0.00 | 0.00 | 87 | 1013.1 |
| 20260906095924 | 23 | 340 | 0.0 | 3.2 | 0.00 | 0.00 | 0.00 | 87 | 1013.2 |
| 20260906095419 | 23 | 327 | 1.6 | 3.2 | 0.00 | 0.00 | 0.00 | 87 | 1013.0 |
| 20260906094914 | 23 | 300 | 0.0 | 3.2 | 0.00 | 0.00 | 0.00 | 87 | 1013.1 |
| 20260906094409 | 23 | 300 | 0.0 | 1.6 | 0.00 | 0.00 | 0.00 | 87 | 1012.9 |
| 20260906093905 | 23 | 346 | 0.0 | 3.2 | 0.00 | 0.00 | 0.00 | 87 | 1012.8 |
| 20260906093401 | 23 | 306 | 1.6 | 1.6 | 0.00 | 0.00 | 0.00 | 87 | 1013.0 |
| 20260906092901 | 23 | 311 | 1.6 | 1.6 | 0.00 | 0.00 | 0.00 | 87 | 1012.8 |
| 20260906092400 | 23 | 311 | 1.6 | 1.6 | 0.00 | 0.00 | 0.00 | 86 | 1013.0 |
| 20260906091856 | 23 | 340 | 0.0 | 0.0 | 0.00 | 0.00 | 0.00 | 86 | 1012.8 |
| 20260906091352 | 23 | 284 | 0.0 | 3.2 | 0.00 | 0.00 | 0.00 | 86 | 1012.8 |
| 20260906090848 | 23 | 279 | 1.6 | 3.2 | 0.00 | 0.00 | 0.00 | 86 | 1012.7 |
| 20260906090347 | 23 | 326 | 1.6 | 3.2 | 0.00 | 0.00 | 0.00 | 86 | 1012.8 |
| 20260906085842 | 23 | 284 | 1.6 | 3.2 | 0.00 | 0.00 | 0.00 | 86 | 1012.9 |
| 20260906085341 | 23 | 305 | 1.6 | 3.2 | 0.00 | 0.00 | 0.00 | 86 | 1012.6 |
| 20260906084836 | 23 | 289 | 0.0 | 0.0 | 0.00 | 0.00 | 0.00 | 86 | 1012.7 |
| 20260906084336 | 23 | 222 | 0.0 | 1.6 | 0.00 | 0.00 | 0.00 | 86 | 1012.8 |
| 20260906083830 | 23 | 4 | 0.0 | 3.2 | 0.00 | 0.00 | 0.00 | 85 | 1012.6 |
| 20260906083327 | 24 | 319 | 3.2 | 3.2 | 0.00 | 0.00 | 0.00 | 85 | 1012.7 |
| 20260906082826 | 24 | 297 | 0.0 | 3.2 | 0.00 | 0.00 | 0.00 | 85 | 1012.6 |
| 20260906082321 | 24 | 318 | 3.2 | 3.2 | 0.00 | 0.00 | 0.00 | 85 | 1012.7 |
| 20260906081817 | 24 | 316 | 0.0 | 3.2 | 0.00 | 0.00 | 0.00 | 84 | 1012.8 |
| 20260906081313 | 25 | 327 | 3.2 | 3.2 | 0.00 | 0.00 | 0.00 | 84 | 1012.7 |
| 20260906080809 | 25 | 300 | 0.0 | 3.2 | 0.00 | 0.00 | 0.00 | 84 | 1012.7 |
| 20260906080305 | 25 | 281 | 0.0 | 3.2 | 0.00 | 0.00 | 0.00 | 83 | 1012.9 |
| 20260906075804 | 25 | 276 | 0.0 | 3.2 | 0.00 | 0.00 | 0.00 | 83 | 1012.7 |
| 20260906075306 | 25 | 234 | 1.6 | 1.6 | 0.00 | 0.00 | 0.00 | 83 | 1012.8 |
| 20260906074759 | 25 | 224 | 1.6 | 1.6 | 0.00 | 0.00 | 0.00 | 83 | 1012.5 |
| 20260906074259 | 25 | 256 | 1.6 | 3.2 | 0.00 | 0.00 | 0.00 | 84 | 1012.6 |
| 20260906073759 | 25 | 277 | 0.0 | 3.2 | 0.00 | 0.00 | 0.00 | 84 | 1012.4 |
| 20260906073259 | 25 | 278 | 1.6 | 3.2 | 0.00 | 0.00 | 0.00 | 84 | 1012.7 |
| 20260906072755 | 25 | 280 | 0.0 | 1.6 | 0.00 | 0.00 | 0.00 | 84 | 1012.4 |
| 20260906072250 | 25 | 332 | 0.0 | 1.6 | 0.00 | 0.00 | 0.00 | 83 | 1012.5 |
| 20260906071746 | 25 | 4 | 0.0 | 1.6 | 0.00 | 0.00 | 0.00 | 83 | 1012.4 |
| 20260906071246 | 25 | 16 | 0.0 | 1.6 | 0.00 | 0.00 | 0.00 | 83 | 1012.4 |
| 20260906070743 | 25 | 335 | 0.0 | 1.6 | 0.00 | 0.00 | 0.00 | 82 | 1012.4 |
| 20260906070238 | 25 | 278 | 1.6 | 1.6 | 0.00 | 0.00 | 0.00 | 82 | 1012.6 |
| 20260906065737 | 25 | 274 | 0.0 | 1.6 | 0.00 | 0.00 | 0.00 | 82 | 1012.5 |
| 20260906065233 | 25 | 300 | 0.0 | 1.6 | 0.00 | 0.00 | 0.00 | 81 | 1012.6 |
| 20260906064728 | 25 | 305 | 0.0 | 1.6 | 0.00 | 0.00 | 0.00 | 80 | 1012.8 |
| 20260906064224 | 25 | 293 | 3.2 | 3.2 | 0.00 | 0.00 | 0.00 | 80 | 1012.6 |
| 20260906063719 | 25 | 300 | 3.2 | 3.2 | 0.00 | 0.00 | 0.00 | 80 | 1012.8 |
| 20260906063215 | 25 | 288 | 1.6 | 3.2 | 0.00 | 0.00 | 0.00 | 81 | 1012.8 |
| 20260906062710 | 25 | 300 | 3.2 | 3.2 | 0.00 | 0.00 | 0.00 | 81 | 1012.8 |
| 20260906062209 | 25 | 283 | 3.2 | 3.2 | 0.00 | 0.00 | 0.00 | 82 | 1012.9 |
| 20260906061705 | 25 | 282 | 3.2 | 3.2 | 0.00 | 0.00 | 0.00 | 84 | 1013.0 |
| 20260906061200 | 25 | 305 | 0.0 | 1.6 | 0.00 | 0.00 | 0.00 | 84 | 1013.0 |
| 20260906060656 | 25 | 314 | 0.0 | 3.2 | 0.00 | 0.00 | 0.00 | 84 | 1013.2 |
| 20260906060153 | 25 | 292 | 0.0 | 1.6 | 0.00 | 0.00 | 0.00 | 84 | 1013.1 |
| 20260906055649 | 25 | 286 | 0.0 | 0.0 | 0.00 | 0.00 | 0.00 | 84 | 1013.2 |
| 20260906055144 | 25 | 324 | 0.0 | 0.0 | 0.00 | 0.00 | 0.00 | 83 | 1013.2 |
| 20260906054639 | 25 | 316 | 0.0 | 1.6 | 0.00 | 0.00 | 0.00 | 83 | 1013.2 |
| 20260906054134 | 25 | 315 | 0.0 | 1.6 | 0.00 | 0.00 | 0.00 | 82 | 1013.2 |
| 20260906053632 | 25 | 313 | 1.6 | 1.6 | 0.00 | 0.00 | 0.00 | 82 | 1013.2 |
| 20260906053131 | 25 | 287 | 3.2 | 3.2 | 0.00 | 0.00 | 0.00 | 82 | 1013.2 |
| 20260906052627 | 25 | 297 | 0.0 | 1.6 | 0.00 | 0.00 | 0.00 | 82 | 1013.0 |
| 20260906052123 | 25 | 273 | 0.0 | 1.6 | 0.00 | 0.00 | 0.00 | 82 | 1013.1 |
| 20260906051619 | 25 | 304 | 1.6 | 1.6 | 0.00 | 0.00 | 0.00 | 82 | 1013.1 |
| 20260906051114 | 25 | 283 | 1.6 | 3.2 | 0.00 | 0.00 | 0.00 | 82 | 1013.1 |
| 20260906050610 | 25 | 300 | 1.6 | 1.6 | 0.00 | 0.00 | 0.00 | 82 | 1012.9 |
| 20260906050105 | 25 | 300 | 0.0 | 1.6 | 0.00 | 0.00 | 0.00 | 81 | 1013.2 |
| 20260906045603 | 26 | 341 | 1.6 | 1.6 | 0.00 | 0.00 | 0.00 | 81 | 1013.1 |
| 20260906045058 | 26 | 300 | 0.0 | 1.6 | 0.00 | 0.00 | 0.00 | 80 | 1013.0 |
| 20260906044555 | 26 | 308 | 3.2 | 3.2 | 0.00 | 0.00 | 0.00 | 79 | 1013.0 |
| 20260906044054 | 26 | 297 | 3.2 | 3.2 | 0.00 | 0.00 | 0.00 | 79 | 1013.0 |
| 20260906043550 | 26 | 283 | 1.6 | 3.2 | 0.00 | 0.00 | 0.00 | 78 | 1012.9 |
| 20260906043047 | 26 | 278 | 3.2 | 3.2 | 0.00 | 0.00 | 0.00 | 78 | 1012.9 |
| 20260906042545 | 26 | 286 | 3.2 | 3.2 | 0.00 | 0.00 | 0.00 | 78 | 1013.1 |
| 20260906042040 | 26 | 302 | 3.2 | 3.2 | 0.00 | 0.00 | 0.00 | 77 | 1012.9 |
| 20260906041536 | 26 | 327 | 1.6 | 3.2 | 0.00 | 0.00 | 0.00 | 77 | 1012.9 |
| 20260906041031 | 26 | 302 | 1.6 | 3.2 | 0.00 | 0.00 | 0.00 | 77 | 1013.0 |
| 20260906040526 | 27 | 306 | 1.6 | 3.2 | 0.00 | 0.00 | 0.00 | 77 | 1013.0 |
| 20260906040022 | 27 | 305 | 1.6 | 3.2 | 0.00 | 0.00 | 0.00 | 77 | 1013.0 |
| 20260906035516 | 26 | 292 | 3.2 | 3.2 | 0.00 | 0.00 | 0.00 | 77 | 1013.1 |
| 20260906035013 | 27 | 300 | 3.2 | 3.2 | 0.00 | 0.00 | 0.00 | 77 | 1012.9 |
| 20260906034512 | 27 | 304 | 1.6 | 3.2 | 0.00 | 0.00 | 0.00 | 76 | 1012.8 |
| 20260906034007 | 26 | 287 | 0.0 | 1.6 | 0.00 | 0.00 | 0.00 | 77 | 1012.9 |
| 20260906033502 | 27 | 297 | 1.6 | 1.6 | 0.00 | 0.00 | 0.00 | 78 | 1012.7 |
| 20260906032958 | 27 | 346 | 1.6 | 3.2 | 0.00 | 0.00 | 0.00 | 77 | 1012.8 |
| 20260906032455 | 27 | 257 | 1.6 | 3.2 | 0.00 | 0.00 | 0.00 | 76 | 1012.8 |
| 20260906031954 | 27 | 340 | 0.0 | 0.0 | 0.00 | 0.00 | 0.00 | 76 | 1012.8 |
| 20260906031450 | 27 | 295 | 1.6 | 3.2 | 0.00 | 0.00 | 0.00 | 76 | 1012.6 |
| 20260906030945 | 27 | 300 | 0.0 | 1.6 | 0.00 | 0.00 | 0.00 | 75 | 1012.6 |
| 20260906030439 | 27 | 295 | 1.6 | 3.2 | 0.00 | 0.00 | 0.00 | 75 | 1012.7 |
| 20260906025934 | 27 | 277 | 3.2 | 4.8 | 0.00 | 0.00 | 0.00 | 75 | 1012.5 |
| 20260906025433 | 26 | 282 | 3.2 | 3.2 | 0.00 | 0.00 | 0.00 | 76 | 1012.6 |
| 20260906024932 | 26 | 296 | 3.2 | 3.2 | 0.00 | 0.00 | 0.00 | 77 | 1012.5 |
| 20260906024432 | 27 | 303 | 1.6 | 3.2 | 0.00 | 0.00 | 0.00 | 76 | 1012.6 |
| 20260906023927 | 27 | 296 | 1.6 | 3.2 | 0.00 | 0.00 | 0.00 | 75 | 1012.4 |
| 20260906023424 | 27 | 293 | 3.2 | 6.4 | 0.00 | 0.00 | 0.00 | 74 | 1012.3 |
| 20260906022924 | 27 | 280 | 3.2 | 4.8 | 0.00 | 0.00 | 0.00 | 73 | 1012.3 |
| 20260906022419 | 27 | 285 | 3.2 | 3.2 | 0.00 | 0.00 | 0.00 | 73 | 1012.3 |
| 20260906021915 | 27 | 288 | 3.2 | 3.2 | 0.00 | 0.00 | 0.00 | 73 | 1012.2 |
| 20260906021414 | 27 | 275 | 3.2 | 3.2 | 0.00 | 0.00 | 0.00 | 73 | 1012.2 |
| 20260906020908 | 27 | 298 | 1.6 | 3.2 | 0.00 | 0.00 | 0.00 | 73 | 1012.3 |
| 20260906020403 | 28 | 294 | 3.2 | 3.2 | 0.00 | 0.00 | 0.00 | 73 | 1012.2 |
| 20260906015857 | 28 | 4 | 0.0 | 3.2 | 0.00 | 0.00 | 0.00 | 72 | 1012.3 |
| 20260906015357 | 28 | 296 | 3.2 | 3.2 | 0.00 | 0.00 | 0.00 | 72 | 1012.1 |
| 20260906014856 | 27 | 233 | 0.0 | 3.2 | 0.00 | 0.00 | 0.00 | 73 | 1012.1 |
| 20260906014356 | 28 | 56 | 3.2 | 3.2 | 0.00 | 0.00 | 0.00 | 75 | 1012.3 |
| 20260906013853 | 28 | 302 | 3.2 | 3.2 | 0.00 | 0.00 | 0.00 | 72 | 1011.8 |
| 20260906013348 | 28 | 300 | 3.2 | 3.2 | 0.00 | 0.00 | 0.00 | 70 | 1011.8 |
| 20260906012843 | 28 | 302 | 3.2 | 4.8 | 0.00 | 0.00 | 0.00 | 70 | 1011.8 |
| 20260906012338 | 29 | 291 | 3.2 | 3.2 | 0.00 | 0.00 | 0.00 | 67 | 1011.8 |
| 20260906011838 | 30 | 302 | 3.2 | 3.2 | 0.00 | 0.00 | 0.00 | 66 | 1011.6 |
| 20260906011333 | 30 | 275 | 3.2 | 3.2 | 0.00 | 0.00 | 0.00 | 66 | 1011.7 |
| 20260906010829 | 30 | 294 | 3.2 | 3.2 | 0.00 | 0.00 | 0.00 | 66 | 1011.5 |
| 20260906010325 | 30 | 293 | 3.2 | 3.2 | 0.00 | 0.00 | 0.00 | 66 | 1011.7 |
| 20260906005820 | 30 | 303 | 1.6 | 3.2 | 0.00 | 0.00 | 0.00 | 68 | 1011.9 |
| 20260906005319 | 30 | 300 | 3.2 | 3.2 | 0.00 | 0.00 | 0.00 | 67 | 1011.7 |
| 20260906004818 | 29 | 293 | 3.2 | 3.2 | 0.00 | 0.00 | 0.00 | 69 | 1011.6 |
| 20260906004318 | 29 | 300 | 3.2 | 3.2 | 0.00 | 0.00 | 0.00 | 68 | 1011.8 |
| 20260906003813 | 29 | 315 | 1.6 | 3.2 | 0.00 | 0.00 | 0.00 | 72 | 1012.0 |
| 20260906003309 | 30 | 298 | 3.2 | 3.2 | 0.00 | 0.00 | 0.00 | 72 | 1011.6 |
| 20260906002804 | 30 | 295 | 3.2 | 3.2 | 0.00 | 0.00 | 0.00 | 71 | 1011.6 |
| 20260906002306 | 30 | 314 | 1.6 | 3.2 | 0.00 | 0.00 | 0.00 | 69 | 1011.6 |
| 20260906001759 | 31 | 315 | 0.0 | 1.6 | 0.00 | 0.00 | 0.00 | 66 | 1011.7 |
| 20260906001254 | 31 | 319 | 1.6 | 3.2 | 0.00 | 0.00 | 0.00 | 64 | 1011.7 |
| 20260906000749 | 31 | 316 | 1.6 | 3.2 | 0.00 | 0.00 | 0.00 | 64 | 1011.7 |
| 20260906000243 | 31 | 300 | 3.2 | 3.2 | 0.00 | 0.00 | 0.00 | 62 | 1011.7 |
| 20260905235738 | 31 | 289 | 3.2 | 3.2 | 0.00 | 0.00 | 0.00 | 63 | 1011.9 |
| 20260905235238 | 31 | 291 | 1.6 | 3.2 | 0.00 | 0.00 | 0.00 | 64 | 1011.8 |
| 20260905234734 | 32 | 299 | 1.6 | 3.2 | 0.00 | 0.00 | 0.00 | 63 | 1011.8 |
| 20260905234229 | 32 | 300 | 1.6 | 1.6 | 0.00 | 0.00 | 0.00 | 61 | 1011.9 |
| 20260905233724 | 32 | 303 | 1.6 | 3.2 | 0.00 | 0.00 | 0.00 | 61 | 1011.9 |
| 20260905233223 | 32 | 302 | 3.2 | 3.2 | 0.00 | 0.00 | 0.00 | 59 | 1011.8 |
| 20260905232718 | 32 | 298 | 3.2 | 4.8 | 0.00 | 0.00 | 0.00 | 61 | 1011.9 |
| 20260905232214 | 32 | 284 | 3.2 | 3.2 | 0.00 | 0.00 | 0.00 | 63 | 1011.8 |
| 20260905231710 | 32 | 299 | 3.2 | 3.2 | 0.00 | 0.00 | 0.00 | 63 | 1011.7 |
| 20260905231205 | 32 | 311 | 1.6 | 3.2 | 0.00 | 0.00 | 0.00 | 62 | 1011.8 |
| 20260905230701 | 33 | 341 | 1.6 | 3.2 | 0.00 | 0.00 | 0.00 | 59 | 1011.7 |
| 20260905230159 | 33 | 306 | 1.6 | 3.2 | 0.00 | 0.00 | 0.00 | 55 | 1011.6 |
| 20260905225658 | 33 | 328 | 0.0 | 3.2 | 0.00 | 0.00 | 0.00 | 57 | 1011.7 |
| 20260905225154 | 32 | 296 | 1.6 | 3.2 | 0.00 | 0.00 | 0.00 | 64 | 1011.7 |
| 20260905224654 | 33 | 348 | 6.4 | 6.4 | 0.00 | 0.00 | 0.00 | 63 | 1011.7 |
| 20260905224153 | 33 | 336 | 1.6 | 1.6 | 0.00 | 0.00 | 0.00 | 57 | 1011.6 |
| 20260905223650 | 33 | 300 | 1.6 | 3.2 | 0.00 | 0.00 | 0.00 | 59 | 1011.7 |
| 20260905223147 | 34 | 358 | 0.0 | 1.6 | 0.00 | 0.00 | 0.00 | 52 | 1011.8 |
| 20260905222642 | 34 | 339 | 1.6 | 3.2 | 0.00 | 0.00 | 0.00 | 50 | 1011.6 |
| 20260905222137 | 35 | 340 | 3.2 | 3.2 | 0.00 | 0.00 | 0.00 | 50 | 1011.5 |
| 20260905221632 | 35 | 319 | 0.0 | 1.6 | 0.00 | 0.00 | 0.00 | 47 | 1011.6 |
| 20260905221129 | 35 | 319 | 1.6 | 3.2 | 0.00 | 0.00 | 0.00 | 47 | 1011.5 |
| 20260905220624 | 36 | 333 | 1.6 | 3.2 | 0.00 | 0.00 | 0.00 | 47 | 1011.8 |
| 20260905220120 | 36 | 341 | 3.2 | 4.8 | 0.00 | 0.00 | 0.00 | 44 | 1011.7 |
| 20260905215620 | 37 | 330 | 4.8 | 6.4 | 0.00 | 0.00 | 0.00 | 40 | 1011.7 |
| 20260905215116 | 38 | 288 | 4.8 | 6.4 | 0.00 | 0.00 | 0.00 | 38 | 1011.6 |
| 20260905214612 | 38 | 294 | 4.8 | 6.4 | 0.00 | 0.00 | 0.00 | 37 | 1011.7 |
| 20260905214112 | 38 | 300 | 3.2 | 6.4 | 0.00 | 0.00 | 0.00 | 37 | 1011.9 |
| 20260905213607 | 38 | 276 | 6.4 | 8.0 | 0.00 | 0.00 | 0.00 | 37 | 1011.7 |
| 20260905213102 | 38 | 289 | 4.8 | 6.4 | 0.00 | 0.00 | 0.00 | 39 | 1011.8 |
| 20260905212602 | 39 | 310 | 4.8 | 4.8 | 0.00 | 0.00 | 0.00 | 37 | 1011.8 |
| 20260905212102 | 38 | 272 | 3.2 | 4.8 | 0.00 | 0.00 | 0.00 | 35 | 1011.8 |
| 20260905211557 | 38 | 266 | 8.0 | 8.0 | 0.00 | 0.00 | 0.00 | 36 | 1011.8 |
| 20260905211052 | 39 | 329 | 3.2 | 4.8 | 0.00 | 0.00 | 0.00 | 37 | 1011.9 |
| 20260905210548 | 39 | 315 | 4.8 | 6.4 | 0.00 | 0.00 | 0.00 | 36 | 1012.0 |
| 20260905210043 | 38 | 335 | 3.2 | 4.8 | 0.00 | 0.00 | 0.00 | 36 | 1012.0 |
| 20260905205543 | 39 | 279 | 3.2 | 6.4 | 0.00 | 0.00 | 0.00 | 37 | 1012.3 |
| 20260905205042 | 38 | 300 | 6.4 | 6.4 | 0.00 | 0.00 | 0.00 | 35 | 1012.2 |
| 20260905204537 | 39 | 256 | 3.2 | 3.2 | 0.00 | 0.00 | 0.00 | 35 | 1012.1 |
| 20260905204032 | 38 | 287 | 3.2 | 6.4 | 0.00 | 0.00 | 0.00 | 41 | 1012.2 |
| 20260905203532 | 38 | 347 | 3.2 | 6.4 | 0.00 | 0.00 | 0.00 | 39 | 1012.3 |
| 20260905203027 | 38 | 288 | 3.2 | 6.4 | 0.00 | 0.00 | 0.00 | 39 | 1012.2 |
| 20260905202522 | 37 | 340 | 1.6 | 8.0 | 0.00 | 0.00 | 0.00 | 43 | 1012.3 |
| 20260905202018 | 37 | 295 | 4.8 | 4.8 | 0.00 | 0.00 | 0.00 | 39 | 1012.2 |
| 20260905201514 | 37 | 284 | 4.8 | 9.7 | 0.00 | 0.00 | 0.00 | 40 | 1012.5 |
| 20260905201013 | 38 | 299 | 6.4 | 6.4 | 0.00 | 0.00 | 0.00 | 40 | 1012.5 |
| 20260905200509 | 39 | 311 | 1.6 | 3.2 | 0.00 | 0.00 | 0.00 | 40 | 1012.5 |
| 20260905200008 | 37 | 25 | 3.2 | 8.0 | 0.00 | 0.00 | 0.00 | 37 | 1012.7 |
| 20260905195502 | 38 | 257 | 3.2 | 9.7 | 0.00 | 0.00 | 0.00 | 37 | 1012.9 |
| 20260905194958 | 38 | 342 | 3.2 | 6.4 | 0.00 | 0.00 | 0.00 | 38 | 1012.8 |
| 20260905194457 | 38 | 46 | 3.2 | 4.8 | 0.00 | 0.00 | 0.00 | 38 | 1013.2 |
| 20260905193957 | 38 | 321 | 4.8 | 6.4 | 0.00 | 0.00 | 0.00 | 40 | 1013.1 |
| 20260905193452 | 38 | 317 | 4.8 | 9.7 | 0.00 | 0.00 | 0.00 | 39 | 1013.1 |
| 20260905192947 | 38 | 354 | 4.8 | 9.7 | 0.00 | 0.00 | 0.00 | 39 | 1013.2 |
| 20260905192442 | 39 | 288 | 3.2 | 8.0 | 0.00 | 0.00 | 0.00 | 37 | 1013.2 |
| 20260905191938 | 38 | 244 | 3.2 | 3.2 | 0.00 | 0.00 | 0.00 | 37 | 1013.3 |
| 20260905191438 | 38 | 288 | 9.7 | 9.7 | 0.00 | 0.00 | 0.00 | 40 | 1013.3 |
| 20260905190937 | 38 | 293 | 4.8 | 6.4 | 0.00 | 0.00 | 0.00 | 40 | 1013.5 |
| 20260905190435 | 38 | 350 | 3.2 | 4.8 | 0.00 | 0.00 | 0.00 | 40 | 1013.6 |
| 20260905185934 | 38 | 349 | 3.2 | 6.4 | 0.00 | 0.00 | 0.00 | 40 | 1013.6 |
| 20260905185429 | 37 | 242 | 3.2 | 9.7 | 0.00 | 0.00 | 0.00 | 40 | 1013.5 |
| 20260905184928 | 38 | 274 | 3.2 | 8.0 | 0.00 | 0.00 | 0.00 | 40 | 1013.7 |
| 20260905184423 | 38 | 287 | 4.8 | 4.8 | 0.00 | 0.00 | 0.00 | 43 | 1013.7 |
| 20260905183921 | 37 | 288 | 3.2 | 4.8 | 0.00 | 0.00 | 0.00 | 41 | 1013.7 |
| 20260905183416 | 37 | 325 | 0.0 | 4.8 | 0.00 | 0.00 | 0.00 | 45 | 1013.6 |
| 20260905182911 | 37 | 283 | 1.6 | 6.4 | 0.00 | 0.00 | 0.00 | 42 | 1013.6 |
| 20260905182410 | 37 | 3 | 3.2 | 3.2 | 0.00 | 0.00 | 0.00 | 42 | 1013.9 |
| 20260905181907 | 37 | 354 | 4.8 | 6.4 | 0.00 | 0.00 | 0.00 | 42 | 1013.8 |
| 20260905181406 | 37 | 340 | 4.8 | 11.3 | 0.00 | 0.00 | 0.00 | 41 | 1014.0 |
| 20260905180905 | 37 | 304 | 4.8 | 8.0 | 0.00 | 0.00 | 0.00 | 41 | 1013.9 |
| 20260905180400 | 37 | 175 | 0.0 | 4.8 | 0.00 | 0.00 | 0.00 | 42 | 1014.1 |
| 20260905175855 | 37 | 211 | 1.6 | 3.2 | 0.00 | 0.00 | 0.00 | 40 | 1014.2 |
| 20260905175355 | 37 | 350 | 3.2 | 4.8 | 0.00 | 0.00 | 0.00 | 39 | 1014.3 |
| 20260905174850 | 37 | 21 | 4.8 | 9.7 | 0.00 | 0.00 | 0.00 | 39 | 1014.4 |
| 20260905174346 | 36 | 303 | 4.8 | 8.0 | 0.00 | 0.00 | 0.00 | 41 | 1014.4 |
| 20260905173841 | 36 | 348 | 4.8 | 6.4 | 0.00 | 0.00 | 0.00 | 46 | 1014.3 |
| 20260905173337 | 37 | 282 | 6.4 | 8.0 | 0.00 | 0.00 | 0.00 | 42 | 1014.4 |
| 20260905172832 | 36 | 311 | 3.2 | 8.0 | 0.00 | 0.00 | 0.00 | 46 | 1014.4 |
| 20260905172330 | 37 | 211 | 4.8 | 8.0 | 0.00 | 0.00 | 0.00 | 42 | 1014.4 |
| 20260905171826 | 36 | 305 | 6.4 | 9.7 | 0.00 | 0.00 | 0.00 | 48 | 1014.6 |
| 20260905171323 | 36 | 285 | 8.0 | 8.0 | 0.00 | 0.00 | 0.00 | 45 | 1014.7 |
| 20260905170819 | 36 | 300 | 3.2 | 8.0 | 0.00 | 0.00 | 0.00 | 46 | 1014.8 |
| 20260905170314 | 37 | 299 | 3.2 | 3.2 | 0.00 | 0.00 | 0.00 | 44 | 1014.7 |
| 20260905165813 | 35 | 292 | 8.0 | 8.0 | 0.00 | 0.00 | 0.00 | 48 | 1014.8 |
| 20260905165310 | 35 | 256 | 8.0 | 9.7 | 0.00 | 0.00 | 0.00 | 46 | 1014.9 |
| 20260905164809 | 35 | 286 | 6.4 | 9.7 | 0.00 | 0.00 | 0.00 | 47 | 1014.9 |
| 20260905164309 | 35 | 273 | 4.8 | 6.4 | 0.00 | 0.00 | 0.00 | 49 | 1015.0 |
| 20260905163805 | 35 | 272 | 8.0 | 11.3 | 0.00 | 0.00 | 0.00 | 45 | 1015.0 |
| 20260905163301 | 36 | 270 | 6.4 | 9.7 | 0.00 | 0.00 | 0.00 | 45 | 1015.0 |
| 20260905162757 | 36 | 282 | 8.0 | 8.0 | 0.00 | 0.00 | 0.00 | 47 | 1015.2 |
| 20260905162256 | 35 | 312 | 3.2 | 6.4 | 0.00 | 0.00 | 0.00 | 51 | 1014.9 |
| 20260905161751 | 36 | 331 | 4.8 | 4.8 | 0.00 | 0.00 | 0.00 | 46 | 1015.1 |
| 20260905161250 | 35 | 311 | 3.2 | 6.4 | 0.00 | 0.00 | 0.00 | 50 | 1015.2 |
| 20260905160748 | 35 | 288 | 6.4 | 6.4 | 0.00 | 0.00 | 0.00 | 49 | 1015.1 |
| 20260905160243 | 36 | 359 | 1.6 | 4.8 | 0.00 | 0.00 | 0.00 | 48 | 1015.3 |
| 20260905155738 | 35 | 289 | 4.8 | 6.4 | 0.00 | 0.00 | 0.00 | 49 | 1015.3 |
| 20260905155237 | 35 | 302 | 4.8 | 8.0 | 0.00 | 0.00 | 0.00 | 52 | 1015.2 |
| 20260905154730 | 36 | 277 | 3.2 | 3.2 | 0.00 | 0.00 | 0.00 | 48 | 1015.3 |
| 20260905154227 | 35 | 338 | 0.0 | 1.6 | 0.00 | 0.00 | 0.00 | 52 | 1015.3 |
| 20260905153717 | 34 | 291 | 3.2 | 4.8 | 0.00 | 0.00 | 0.00 | 53 | 1015.2 |
| 20260905153213 | 34 | 271 | 6.4 | 8.0 | 0.00 | 0.00 | 0.00 | 53 | 1015.3 |
| 20260905152713 | 33 | 261 | 6.4 | 9.7 | 0.00 | 0.00 | 0.00 | 54 | 1015.3 |
| 20260905152207 | 34 | 289 | 4.8 | 9.7 | 0.00 | 0.00 | 0.00 | 55 | 1015.1 |
| 20260905151707 | 35 | 291 | 3.2 | 3.2 | 0.00 | 0.00 | 0.00 | 54 | 1015.3 |
| 20260905151203 | 35 | 261 | 1.6 | 3.2 | 0.00 | 0.00 | 0.00 | 52 | 1015.4 |
| 20260905150658 | 33 | 246 | 1.6 | 3.2 | 0.00 | 0.00 | 0.00 | 57 | 1015.2 |
| 20260905150156 | 33 | 253 | 3.2 | 3.2 | 0.00 | 0.00 | 0.00 | 57 | 1015.4 |
| 20260905145654 | 33 | 293 | 3.2 | 4.8 | 0.00 | 0.00 | 0.00 | 57 | 1015.3 |
| 20260905145149 | 34 | 307 | 4.8 | 4.8 | 0.00 | 0.00 | 0.00 | 58 | 1015.4 |
| 20260905144649 | 33 | 288 | 3.2 | 4.8 | 0.00 | 0.00 | 0.00 | 59 | 1015.2 |
| 20260905144149 | 33 | 10 | 3.2 | 4.8 | 0.00 | 0.00 | 0.00 | 58 | 1015.3 |
| 20260905143648 | 33 | 275 | 3.2 | 3.2 | 0.00 | 0.00 | 0.00 | 57 | 1015.4 |
| 20260905143148 | 32 | 320 | 3.2 | 4.8 | 0.00 | 0.00 | 0.00 | 63 | 1015.2 |
| 20260905142647 | 32 | 344 | 6.4 | 6.4 | 0.00 | 0.00 | 0.00 | 61 | 1015.2 |
| 20260905142147 | 32 | 337 | 4.8 | 6.4 | 0.00 | 0.00 | 0.00 | 60 | 1015.3 |
| 20260905141642 | 31 | 311 | 3.2 | 4.8 | 0.00 | 0.00 | 0.00 | 61 | 1015.4 |
| 20260905141138 | 31 | 270 | 3.2 | 3.2 | 0.00 | 0.00 | 0.00 | 64 | 1015.3 |
| 20260905140633 | 31 | 257 | 0.0 | 4.8 | 0.00 | 0.00 | 0.00 | 61 | 1015.4 |
| 20260905140133 | 31 | 298 | 3.2 | 4.8 | 0.00 | 0.00 | 0.00 | 60 | 1015.3 |
| 20260905135627 | 31 | 333 | 1.6 | 3.2 | 0.00 | 0.00 | 0.00 | 60 | 1015.3 |
| 20260905135123 | 31 | 353 | 1.6 | 3.2 | 0.00 | 0.00 | 0.00 | 63 | 1015.6 |
| 20260905134618 | 31 | 4 | 3.2 | 3.2 | 0.00 | 0.00 | 0.00 | 64 | 1015.3 |
| 20260905134116 | 31 | 338 | 1.6 | 3.2 | 0.00 | 0.00 | 0.00 | 66 | 1015.5 |
| 20260905133613 | 30 | 300 | 1.6 | 3.2 | 0.00 | 0.00 | 0.00 | 67 | 1015.4 |
| 20260905133112 | 29 | 299 | 3.2 | 3.2 | 0.00 | 0.00 | 0.00 | 69 | 1015.4 |
| 20260905132612 | 30 | 318 | 3.2 | 3.2 | 0.00 | 0.00 | 0.00 | 71 | 1015.4 |
| 20260905132107 | 29 | 326 | 1.6 | 3.2 | 0.00 | 0.00 | 0.00 | 71 | 1015.2 |
| 20260905131602 | 28 | 1 | 3.2 | 3.2 | 0.00 | 0.00 | 0.00 | 72 | 1015.4 |
| 20260905131057 | 28 | 349 | 3.2 | 3.2 | 0.00 | 0.00 | 0.00 | 73 | 1015.3 |